Tracking 29892 objects as of 21-Nov-2024
HD Live streaming from Space Station
objects crossing your sky now

ONEWEB-0193

Track ONEWEB-0193 now!
10-day predictions
ONEWEB-0193 is classified as:


NORAD ID: 48238
Int'l Code: 2021-031AE
Perigee: 1,211.7 km
Apogee: 1,214.2 km
Inclination: 87.9 °
Period: 109.5 minutes
Semi major axis: 7583 km
RCS: Unknown
Launch date: April 25, 2021
Source: United Kingdom (UK)
Launch site: VOSTOCHNY COSMODROME (VOSTO)
Your satellite tracking list
Your tracking list is empty




NASA's NSSDC Master Catalog

Two Line Element Set (TLE):
1 48238U 21031AE  24325.21758727  .00000291  00000-0  75000-3 0  9994
2 48238  87.9030  43.8425 0001695  97.3375 262.7948 13.14500660172908
Source of the keplerian elements: AFSPC